Flag for Germany Weather past 2 weeks in Höxter, North Rhine-Westphalia, Germany

Now
35 °F

Light rain. Overcast.


Feels Like: 35 °F
Forecast: 33 / 52 °F
Wind: 1 mph from Northeast

Location: Bad Lippspringe

Current Time: Mar 6, 2015 at 4:36:09 AM

Latest Report: Mar 6, 2015 at 4:00 AM


Visibility: 10 mi

Pressure: 30.62 "Hg

Humidity: 93%

Dew point: 33 °F

Location of HöxterLocation

Historic Weather in Höxter — Graph

°F

Höxter temperature yesterday

Maximum temperature yesterday: 43 °F (at 5:00 PM)
Minimum temperature yesterday: 36 °F (at 7:00 AM)
Average temperature yesterday: 39 °F

Past Weeks' High & Low Weather Summary

 TemperatureHumidityPressure
High51 °F (Mar 1, 3:00 PM)99% (Feb 23, 7:00 AM)30.63 "Hg (Feb 23, 7:00 AM)
Low26 °F (Feb 19, 5:00 AM)44% (Feb 28, 3:00 PM)29.32 "Hg (Feb 21, 7:00 AM)
Average39 °F80%29.92 "Hg
* Reported Feb 19 3:00 AM — Mar 6 3:00 AM, Höxter, Weather by CustomWeather, © 2015

Note: Actual official high and low records may vary slightly from our data, if they occured in-between our weather recording intervals... More about our weather records

Advertising

Höxter weather history for previous 24 hours

 ConditionsComfort  
Time TempWeatherWind HumidityBarometerVisibility
3:00 AM
Fri, Mar 6
35 °FOvercast.1 mph92%30.62 "Hg9 mi
2:00 AM35 °FPassing clouds.2 mph91%30.62 "Hg12 mi
1:00 AM35 °FClear.2 mph89%30.62 "Hg43 mi
12:00 AM37 °FOvercast.1 mph87%30.63 "Hg43 mi
10:00 PM
Thu, Mar 5
39 °FOvercast.1 mph87%30.62 "Hg28 mi
9:00 PM39 °FOvercast.1 mph86%30.61 "Hg31 mi
8:00 PM41 °FOvercast.3 mph78%30.61 "Hg43 mi
7:00 PM41 °FOvercast.1 mph81%30.61 "Hg43 mi
6:00 PM42 °FOvercast.3 mph77%30.60 "Hg22 mi
5:00 PM43 °FOvercast.5 mph71%30.60 "Hg22 mi
4:00 PM43 °FOvercast.5 mph71%30.60 "Hg31 mi
3:00 PM43 °FOvercast.5 mph71%30.60 "Hg25 mi
2:00 PM42 °FOvercast.6 mph77%30.60 "Hg19 mi
1:00 PM42 °FOvercast.6 mph81%30.61 "Hg18 mi
12:00 PM40 °FOvercast.5 mph84%30.62 "Hg14 mi
11:00 AM40 °FOvercast.5 mph82%30.62 "Hg17 mi
10:00 AM38 °FLow clouds.3 mph88%30.61 "Hg12 mi
9:00 AM37 °FLow clouds.3 mph92%30.60 "Hg10 mi
8:00 AM36 °FLow clouds.5 mph94%30.59 "Hg7 mi
7:00 AM36 °FLow clouds.3 mph91%30.58 "Hg15 mi
6:00 AM36 °FOvercast.3 mph89%30.56 "Hg43 mi
5:00 AM36 °FOvercast.3 mph89%30.55 "Hg43 mi
Weather by CustomWeather, © 2015

See weather overviewHow to use our weather pages